Regional Weather Roundup
Issued by NWS Charleston, SC

Current Version | Previous Version | Graphics & Text | Print | Product List | Glossary On
Versions: 1 2 3 4 5 6 7 8 9 10 11 12 13 14 15 16 17 18 19 20 21 22 23 24 25 26 27 28 29 30 31 32 33 34 35 36 37 38 39 40 41 42 43 44 45 46 47 48 49 50
000
ASUS42 KCHS 250313
RWRCHS

REGIONAL WEATHER ROUNDUP
NATIONAL WEATHER SERVICE CHARLESTON SC
1100 PM EDT TUE MAY 24 2016

NOTE: "FAIR" INDICATES FEW OR NO CLOUDS BELOW 12,000 FEET WITH NO
SIGNIFICANT WEATHER AND/OR OBSTRUCTIONS TO VISIBILITY.

NOT ALL STATIONS ARE QUALITY CONTROLLED. USE DATA WITH CAUTION...
ESPECIALLY DEWPOINT OBSERVATIONS.

SCZ027-030-031-034>040-042>050-250400-
...SOUTHEAST SOUTH CAROLINA...

CITY           SKY/WX    TMP DP  RH WIND       PRES   REMARKS
N CHARLESTON   CLEAR     70  61  73 S5        30.18R
WATERFRONT PRK   N/A     74  65  73 VRB3      30.16R
MOUNT PLEASANT FAIR      66  63  88 CALM      30.19R
JOHNS ISLAND   FAIR      72  64  78 CALM      30.19R
PINOPOLIS        N/A     73  63  68 VRB2      30.10R
MONCKS CORNER  FAIR      63  57  82 CALM      30.18R
SUMMERVILLE    FAIR      68  63  83 CALM      30.19R
BEAUFORT MCAS  CLEAR     73  66  78 S3        30.18R
BEAUFORT ARPT  FAIR      72  64  78 S5        30.17S
HILTON HEAD IS CLOUDY    73  66  78 S7        30.19R
WALTERBORO     CLEAR     70  66  88 S5        30.19R
ALLENDALE      FAIR      72  64  78 CALM      30.17R

...SOUTHERN MIDLANDS AND PEE DEE...

CITY           SKY/WX    TMP DP  RH WIND       PRES   REMARKS
GEORGETOWN     FAIR      63  55  77 CALM      30.20R
KINGSTREE      FAIR      68  57  68 SE3       30.18R
ORANGEBURG     CLEAR     69  63  81 S3        30.18R
BARNWELL       FAIR      75  68  78 CALM      30.18R
AIKEN          FAIR      64  54  68 CALM      30.20R
MANNING        FAIR      70  61  73 S5        30.18R
COLUMBIA       CLEAR     69  60  73 CALM      30.15R
SUMTER         CLEAR     69  60  74 SW6       30.15R
FLORENCE       CLEAR     69  58  67 S7        30.18R
MYRTLE BEACH   CLEAR     72  55  56 SW7       30.20R
N MYRTLE BEACH CLEAR     71  60  68 SW12      30.18R

$$

GAZ063-065-086>088-099>101-113>116-118-119-134>141-150-250400-
...SOUTHEAST GEORGIA...

CITY           SKY/WX    TMP DP  RH WIND       PRES   REMARKS
SAVANNAH ARPT  MOCLDY    72  65  78 S5        30.18R
HUNTER AAF     CLOUDY    73  68  85 S3        30.16R
FORT STEWART   CLOUDY    70  65  82 CALM      30.16R
STATESBORO     CLOUDY    74  68  82 CALM      30.18R
SYLVANIA       CLOUDY    75  67  76 S3        30.19R
CLAXTON        FAIR      70  66  86 CALM      30.18R

...CSRA...CENTRAL AND FAR SOUTHEAST GEORGIA...

CITY           SKY/WX    TMP DP  RH WIND       PRES   REMARKS
THOMSON        CLEAR     67  63  87 CALM      30.21R
AUGUSTA-BUSH   CLEAR     63  62  97 CALM      30.15R
AUGUSTA-DANIEL CLEAR     76  57  51 CALM      30.17R
SWAINSBORO     FAIR      68  59  73 CALM      30.18R
VIDALIA        PTCLDY    72  61  68 S3        30.18R
EASTMAN        FAIR      64  60  89 CALM      30.19R
HAZLEHURST     FAIR      74  60  60 CALM      30.17R
ALMA           PTCLDY    71  61  70 S3        30.18R
WAYCROSS       PTCLDY    73  61  65 S7        30.18R
JESUP          FAIR      66  61  82 SW3       30.19R
BAXLEY         FAIR      73  63  68 S3        30.18R
BRUNSWICK      CLOUDY    79  70  73 S5        30.19R
SAINT SIMONS   CLOUDY    76  65  68 SE7       30.18R

$$

SCZ027-028-034-036>038-045-046-048>050-GAZ119-141-250400-
...LAKE AND SUPPLEMENTAL COASTAL OBSERVATIONS...

STATION/POSITION TIME  TEMP    WIND        PRES    WAVE   SWELL
                       AIR SEA DIR/SP/G            HT/PER HT/PER/DIR
                 (UTC) (F)     (DEG/KT/KT) (MB)    (FT/S) (FT/S/D)
WINYAH BAY       0145   71     240/  2     1021.0
LAKE MURRAY      0200   73        CALM     1020.3R
ACE BASIN NERRS  NOT AVBL
FORT PULASKI     0200   74 76              1021.8R
SAPELO ISLAND    0200   75     150/  6     1021.0S

$$

ANZ835-935-AMZ111-154-330-350-352-354-370-450-454-472-250400-
...C-MAN AND BUOY OBSERVATIONS...

STATION/POSITION TIME  TEMP    WIND        PRES    WAVE   SWELL
                       AIR SEA DIR/SP/G            HT/PER HT/PER/DIR
                 (UTC) (F)     (DEG/KT/KT) (MB)    (FT/S) (FT/S/D)
BUOY 41004       0250   76 76  180/ 10/ 10 1021.8R   2/ 9   2/ 9
BUOY 41008       0250   77 76  150/ 12/ 12 1021.8R   2/ 9   2/ 90/ 9
FOLLY BEACH CMAN 0200   75     180/ 10/ 11 1021.8R
CAPERS NEARSHORE 0208   75 74  190/ 10/ 14 1021.3R
FRIPP NEARSHORE  0208   75 75  170/  8/ 10 1020.9R


STATION/POSITION TIME  TEMP    WIND        PRES    WAVE   SWELL
                       AIR SEA DIR/SP/G            HT/PER HT/PER/DIR
                 (UTC) (F)     (DEG/KT/KT) (MB)    (FT/S) (FT/S/D)
5E ST. MARYS GA  0251      78                N/A     2/ 9
FRYING PAN BUOY  0200   75 77  210/ 10/ 14 1021.4R
BUOY 41025       0250   73 80  240/ 17/ 19 1020.8R   4/ 9   2/ 90/ 9
CAPE LOOKOUT NC  0200   71     220/  8/ 11 1020.6R
BUOY 41002       0250   73 78   20/  4/  6 1022.5R   4/ 9   5/ 40/ 9
BUOY 41010       0220   77 78   80/ 10/ 14 1022.2R
ST AUGUSTINE FL  0300   78 81  130/ 14/ 15 1022.9R


$$




USA.gov is the U.S. government's official web portal to all federal, state and local government web resources and services.